Wind_Speed
30 32 33 34 36 33 29 27 19 25 12 10 10 13 13 12 11 13 13 13 13 14 15 15 16 17 18 21 24 27 30 36 36 33 37 30 24 30 31 29 22 21 12 17 23
27 29 31 31 31 32 36 31 22 21 18 15 17 16 17 14 14 16 13 13 13 14 14 13 13 14 17 21 24 26 33 35 35 32 31 30 32 32 36 33 26 23 20 14 18
16 26 27 29 28 29 33 30 32 22 21 22 17 15 13 14 13 14 10 8 9 9 10 11 12 14 16 20 22 28 34 31 31 29 28 32 35 33 39 43 33 29 25 21 20
18 18 24 24 23 24 25 31 26 28 22 17 15 12 9 9 7 7 7 8 10 10 9 9 10 12 15 18 22 27 29 30 33 33 35 35 35 39 41 46 42 32 24 25 22
15 15 19 25 17 20 20 24 28 23 19 16 17 16 16 11 10 11 11 7 6 7 7 7 10 11 13 15 18 23 25 29 32 33 34 35 37 38 44 45 46 39 28 24 25
10 11 10 16 20 16 17 16 24 23 19 14 12 13 18 14 9 8 7 6 6 7 6 5 5 5 8 11 14 17 21 21 25 27 31 34 35 35 43 43 49 47 39 29 25
10 7 8 13 17 16 16 17 20 21 20 16 13 12 11 9 6 6 6 4 5 9 6 5 5 7 8 10 15 16 21 20 21 23 28 26 38 39 35 36 46 53 45 39 34
7 8 5 14 17 17 17 21 24 18 12 10 10 7 5 4 5 5 4 4 6 8 10 8 8 10 12 14 17 20 22 22 17 19 18 19 41 31 22 26 39 48 53 44 40
8 7 7 15 23 26 24 20 22 11 8 11 5 4 4 4 3 2 3 4 6 6 7 9 10 12 15 16 17 13 16 22 25 17 15 17 32 27 21 23 24 36 47 52 45
8 7 9 23 23 23 25 25 22 16 11 6 7 6 6 5 3 1 1 3 5 6 6 9 10 10 8 8 9 14 18 22 25 22 27 31 38 33 29 28 30 26 36 46 50
7 7 10 22 22 28 25 23 22 19 11 8 11 10 7 4 2 2 3 4 6 7 8 8 11 6 8 12 14 15 19 25 23 17 26 27 35 35 32 35 26 26 28 38 34
9 13 10 19 19 19 22 15 18 20 16 14 11 9 7 4 3 2 1 3 4 5 8 10 9 7 8 12 15 17 20 27 29 12 25 31 34 34 24 24 21 22 24 26 25
12 17 14 18 19 18 19 18 20 19 18 14 10 8 9 10 7 4 3 5 5 6 6 8 8 10 11 12 16 18 23 25 24 23 28 16 21 21 10 15 13 18 19 20 25
17 11 17 17 18 19 19 23 24 20 12 9 6 6 12 12 10 11 9 5 6 5 5 4 5 6 6 8 9 17 10 15 19 17 9 17 9 17 9 7 9 13 15 18 21
21 20 15 12 19 21 22 23 21 9 5 6 9 10 7 7 6 7 10 4 2 3 3 5 6 6 6 7 10 15 16 19 22 26 13 12 6 7 8 8 11 12 13 14 15
19 14 13 16 14 15 18 23 11 5 3 6 8 10 11 10 8 6 8 7 2 3 5 7 9 13 12 13 14 19 21 20 12 8 4 6 5 4 15 14 14 15 14 15 13
20 18 18 18 10 26 26 17 6 8 9 8 8 8 8 7 6 8 9 10 8 7 11 13 12 17 17 22 18 20 21 4 2 1 4 1 5 6 17 4 10 14 13 12 15
20 17 15 17 24 24 16 8 8 7 8 12 8 7 4 2 5 4 8 8 9 9 8 9 8 17 17 17 15 14 6 3 4 3 4 8 5 12 6 2 4 9 9 10 20
16 16 20 22 20 13 10 8 10 14 16 10 7 6 4 3 1 3 8 9 8 10 7 9 2 14 14 16 15 13 13 5 2 4 4 7 12 17 7 3 11 11 7 15 23
15 21 17 14 12 16 21 20 15 15 11 8 6 5 3 6 2 1 6 6 8 8 7 6 4 8 9 11 16 9 13 3 5 4 3 6 8 15 23 24 21 25 28 17 19
21 18 12 14 17 20 28 25 17 13 9 6 6 6 3 2 3 3 7 5 9 6 5 5 4 4 5 9 15 15 9 1 4 4 3 3 5 15 20 27 29 30 25 26 22
18 15 14 19 25 22 20 14 11 10 8 7 6 6 4 3 5 3 7 8 8 5 5 7 6 9 10 7 15 19 15 7 3 3 7 6 4 15 20 23 28 30 27 23 22
16 16 16 18 18 20 17 13 11 8 6 6 6 8 8 3 2 3 5 7 8 7 4 5 6 9 4 4 13 19 19 6 1 7 3 3 2 9 15 13 15 16 17 16 14
17 11 11 13 16 16 16 13 12 11 8 7 5 4 5 5 3 2 3 4 6 4 3 3 6 6 3 4 10 14 17 18 0 2 7 11 16 9 10 10 11 10 9 7 6
14 13 10 12 14 14 9 11 10 7 5 4 5 4 3 2 2 2 1 1 3 5 3 3 3 4 4 5 7 8 12 11 11 10 3 15 12 10 7 6 6 5 4 3 4
10 10 10 12 13 12 10 7 4 4 4 4 3 5 4 3 2 3 0 1 2 1 2 1 1 3 4 4 4 4 4 9 11 11 12 11 8 8 5 2 1 1 3 4 5
3 4 10 11 10 9 9 8 5 2 2 2 2 4 3 2 2 2 2 1 1 1 3 3 4 4 3 5 8 8 4 3 1 6 6 6 4 5 4 2 2 5 5 7 10
Wind_Direction
259 255 250 245 236 234 234 222 251 252 251 249 258 259 278 293 299 316 295 280 272 267 262 252 239 229 222 224 225 231 232 239 243 245 244 238 230 221 229 236 238 239 239 249 239
270 257 249 246 241 233 228 224 231 248 236 248 264 277 283 279 290 300 296 284 273 263 260 260 254 243 233 224 224 226 234 243 245 250 252 250 242 232 235 231 235 241 241 222 236
274 265 253 241 238 232 228 223 227 235 246 242 263 276 286 283 293 289 282 273 267 265 254 251 248 237 226 227 230 232 239 244 249 252 255 254 246 235 240 232 230 234 244 231 219
261 274 262 257 241 228 223 219 212 224 229 247 253 249 300 295 281 268 268 278 279 270 261 264 256 242 231 228 226 234 239 247 251 250 253 252 251 238 236 233 230 237 245 243 224
253 262 264 239 241 225 216 221 209 222 228 241 243 245 264 306 279 275 272 266 266 267 262 262 259 255 244 242 239 246 252 252 257 259 259 261 257 255 244 240 240 236 234 240 242
228 262 255 235 222 221 207 209 202 212 226 229 236 248 258 280 271 263 254 261 259 252 251 268 296 282 262 253 246 255 263 263 263 266 267 266 267 259 250 241 241 243 237 239 240
228 227 240 205 202 204 198 179 193 188 225 212 230 256 259 260 245 242 263 270 252 252 256 261 277 275 277 271 265 272 272 271 275 276 274 272 263 255 262 252 242 241 240 239 242
191 186 203 169 179 160 158 176 173 175 168 199 224 244 229 219 223 238 272 259 256 267 269 274 277 272 269 271 271 273 279 281 281 281 272 266 270 277 271 267 246 240 242 236 239
172 148 182 156 152 163 166 159 181 175 171 212 210 178 175 177 210 251 279 271 287 282 286 289 285 275 280 285 287 279 286 286 292 284 289 288 286 281 272 265 260 244 239 239 231
139 125 160 163 147 147 162 171 175 174 169 156 157 147 150 152 145 109 338 319 326 311 300 303 301 286 284 296 287 297 302 295 291 291 300 294 274 274 275 268 263 260 242 236 234
105 116 157 167 154 162 144 160 160 152 144 166 147 122 131 137 136 71 6 330 309 303 310 296 292 291 289 289 291 299 290 290 299 312 308 285 277 284 280 271 262 259 248 239 235
97 105 145 163 177 134 146 145 161 147 132 116 114 116 113 103 72 51 271 293 326 305 287 289 289 270 278 285 295 290 291 293 303 317 306 298 291 300 288 270 252 242 238 226 218
117 124 133 151 167 156 149 137 135 133 113 104 92 104 102 92 96 94 40 357 323 316 304 286 310 311 299 290 288 291 285 297 293 313 314 336 312 350 307 268 261 245 221 226 214
118 121 125 136 155 162 144 126 132 124 96 88 96 109 116 94 71 52 34 35 18 9 10 347 356 344 321 317 292 293 332 319 312 297 290 308 298 325 336 289 249 227 218 211 216
118 111 112 124 131 128 141 135 131 110 75 84 91 103 101 95 84 50 31 41 74 23 353 353 343 332 338 350 313 317 310 311 307 304 311 304 238 303 312 249 246 233 222 224 218
123 121 116 117 106 129 137 138 119 86 54 113 118 103 97 90 73 57 46 41 332 325 348 1 357 5 340 339 310 311 304 307 300 328 290 293 230 307 355 301 240 245 254 249 232
99 95 102 126 124 132 133 134 94 63 120 132 126 105 89 86 66 43 40 40 25 346 7 4 28 6 355 332 302 293 276 293 276 316 260 336 232 333 319 316 241 235 239 229 214
94 87 118 133 130 130 135 126 77 112 113 126 120 87 63 65 60 26 31 22 16 358 349 12 24 16 13 5 341 323 288 277 353 353 353 29 3 8 12 12 215 221 227 226 212
91 108 116 132 128 134 136 103 112 115 121 119 87 64 59 52 19 28 2 9 4 16 25 6 55 19 6 12 1 349 343 1 282 299 54 6 27 26 60 184 216 209 245 117 135
103 131 117 139 129 127 132 111 110 113 112 98 84 58 72 36 36 331 352 3 10 23 28 360 320 9 13 9 26 355 337 346 358 358 36 352 26 34 56 87 103 116 91 110 105
114 127 99 115 121 130 118 110 116 127 123 101 107 116 113 78 33 43 15 24 25 21 23 7 333 342 354 14 13 23 10 290 72 8 57 350 19 42 67 80 92 85 94 84 87
137 138 116 122 127 122 112 110 115 120 123 126 92 97 99 78 55 54 40 36 20 13 12 357 321 304 335 7 23 28 16 2 116 96 96 104 20 56 68 62 72 77 83 85 79
137 142 126 134 134 126 118 112 116 123 125 111 108 99 91 84 79 62 66 46 37 38 28 8 329 320 332 28 28 28 14 355 60 128 90 103 163 58 65 76 75 73 76 75 75
140 139 120 136 137 134 125 119 117 118 106 97 99 97 85 72 76 52 89 59 49 53 50 20 36 50 86 14 3 4 24 21 148 129 112 125 147 138 117 107 95 83 76 71 69
149 146 140 147 147 147 139 132 126 123 135 111 77 77 20 353 30 14 13 10 37 30 34 66 50 36 23 23 13 9 26 56 83 100 86 133 137 141 127 111 106 97 67 33 359
153 147 155 159 164 166 160 158 137 116 101 113 61 37 51 29 7 357 355 116 16 32 348 340 289 322 316 330 331 11 33 76 82 113 123 128 149 148 151 142 101 24 335 317 313
14 145 155 167 174 181 187 193 196 240 278 300 352 7 11 29 10 13 14 346 44 331 298 272 286 304 270 306 306 288 240 273 155 139 145 158 212 206 208 230 302 316 314 312 315
Height
3039 3041 3044 3048 3053 3059 3062 3066 3069 3071 3074 3076 3078 3078 3080 3079 3079 3080 3081 3081 3079 3079 3080 3081 3082 3082 3084 3086 3088 3089 3089 3086 3086 3088 3090 3097 3098 3098 3098 3100 3104 3105 3107 3110 3114
3030 3032 3035 3038 3043 3049 3054 3061 3064 3067 3070 3071 3074 3076 3076 3074 3076 3077 3077 3076 3076 3076 3078 3079 3080 3081 3083 3083 3084 3085 3083 3082 3085 3085 3086 3090 3091 3094 3093 3094 3098 3099 3101 3104 3107
3025 3026 3027 3030 3035 3040 3046 3053 3058 3062 3065 3069 3071 3072 3072 3072 3073 3073 3073 3072 3074 3074 3075 3075 3076 3079 3080 3081 3081 3080 3077 3080 3080 3081 3082 3082 3082 3086 3085 3087 3092 3094 3095 3097 3101
3021 3022 3024 3025 3029 3033 3039 3044 3053 3057 3060 3065 3067 3069 3070 3070 3073 3071 3071 3071 3072 3071 3073 3072 3074 3076 3076 3077 3076 3075 3075 3075 3075 3075 3075 3076 3075 3077 3078 3080 3085 3087 3087 3089 3091
3016 3017 3019 3022 3025 3029 3034 3040 3049 3054 3058 3061 3064 3065 3067 3068 3068 3069 3069 3069 3069 3070 3071 3070 3071 3073 3073 3073 3073 3072 3072 3071 3070 3070 3070 3072 3070 3072 3072 3075 3076 3079 3081 3081 3084
3011 3014 3015 3018 3023 3026 3031 3037 3044 3051 3056 3058 3061 3062 3064 3066 3066 3066 3067 3068 3068 3068 3068 3068 3070 3071 3070 3070 3071 3068 3068 3067 3066 3065 3064 3064 3063 3064 3061 3069 3070 3072 3075 3077 3077
3009 3011 3013 3016 3020 3025 3030 3035 3040 3047 3052 3055 3058 3059 3061 3065 3064 3064 3065 3067 3067 3066 3067 3067 3068 3069 3069 3068 3068 3067 3064 3063 3062 3061 3058 3059 3050 3049 3056 3061 3061 3062 3067 3070 3071
3007 3009 3012 3013 3017 3023 3027 3032 3040 3041 3047 3052 3055 3057 3059 3061 3062 3063 3064 3065 3065 3065 3065 3065 3066 3067 3067 3066 3064 3063 3061 3056 3056 3054 3054 3053 3037 3047 3051 3049 3048 3050 3054 3060 3063
3005 3009 3012 3014 3014 3020 3027 3034 3038 3042 3046 3051 3055 3057 3059 3060 3061 3062 3062 3063 3064 3064 3063 3062 3062 3063 3063 3063 3062 3059 3055 3051 3048 3049 3050 3048 3036 3039 3041 3041 3040 3041 3043 3046 3054
3007 3009 3013 3016 3017 3021 3026 3033 3039 3044 3049 3052 3055 3058 3059 3060 3060 3061 3063 3063 3062 3061 3061 3060 3060 3061 3061 3061 3059 3054 3051 3047 3045 3045 3045 3040 3028 3031 3033 3033 3033 3032 3033 3035 3040
3008 3011 3013 3017 3019 3022 3027 3033 3042 3046 3050 3052 3055 3056 3059 3060 3061 3062 3062 3061 3060 3060 3059 3060 3060 3060 3059 3058 3055 3054 3050 3046 3043 3042 3039 3033 3027 3025 3024 3024 3023 3024 3025 3028 3032
3011 3013 3015 3018 3020 3022 3030 3036 3041 3047 3049 3053 3056 3058 3059 3060 3062 3060 3061 3062 3060 3060 3060 3061 3057 3056 3055 3054 3052 3050 3047 3042 3038 3039 3037 3029 3021 3017 3015 3013 3016 3018 3019 3024 3029
3013 3017 3017 3021 3024 3029 3033 3038 3042 3047 3050 3055 3058 3059 3061 3063 3062 3061 3061 3059 3060 3060 3059 3058 3056 3053 3051 3051 3049 3047 3043 3040 3039 3036 3031 3026 3016 3013 3010 3012 3012 3014 3018 3021 3026
3019 3021 3022 3025 3031 3033 3037 3041 3044 3048 3052 3061 3061 3062 3064 3063 3064 3062 3061 3063 3061 3060 3058 3057 3055 3053 3050 3048 3047 3043 3042 3040 3037 3036 3031 3029 3024 3015 3012 3012 3013 3015 3017 3020 3024
3025 3027 3028 3031 3034 3036 3041 3044 3047 3049 3056 3065 3063 3063 3064 3065 3066 3064 3064 3064 3063 3061 3060 3059 3054 3052 3050 3048 3046 3043 3040 3038 3035 3033 3029 3026 3029 3017 3015 3015 3015 3016 3018 3020 3022
3031 3033 3035 3038 3039 3041 3044 3047 3050 3053 3060 3064 3065 3066 3066 3066 3066 3066 3065 3064 3061 3059 3057 3056 3054 3052 3049 3047 3044 3042 3039 3035 3032 3032 3029 3024 3026 3018 3017 3015 3013 3014 3016 3019 3021
3036 3037 3040 3043 3043 3044 3046 3051 3053 3054 3063 3066 3067 3067 3067 3066 3066 3066 3065 3065 3062 3059 3058 3055 3055 3053 3050 3045 3041 3039 3037 3036 3033 3033 3029 3024 3024 3021 3017 3012 3010 3013 3016 3017 3019
3043 3042 3043 3046 3048 3049 3051 3054 3054 3061 3062 3066 3068 3068 3067 3066 3067 3067 3065 3065 3063 3061 3059 3059 3057 3055 3050 3047 3042 3038 3036 3034 3030 3030 3028 3026 3026 3022 3016 3014 3014 3015 3014 3015 3013
3050 3050 3050 3051 3052 3053 3055 3054 3059 3062 3065 3067 3069 3069 3068 3067 3068 3067 3066 3065 3063 3062 3062 3061 3060 3055 3051 3047 3045 3039 3036 3036 3033 3028 3033 3031 3028 3024 3017 3016 3016 3016 3016 3013 3014
3052 3056 3057 3057 3055 3056 3058 3056 3062 3065 3067 3069 3070 3070 3069 3067 3068 3068 3067 3065 3062 3062 3062 3062 3059 3055 3052 3049 3047 3041 3036 3036 3034 3032 3035 3033 3030 3030 3022 3019 3018 3017 3017 3018 3018
3056 3060 3060 3060 3061 3062 3061 3062 3066 3068 3069 3071 3071 3071 3070 3068 3067 3068 3067 3066 3063 3062 3062 3061 3060 3056 3052 3050 3046 3042 3037 3036 3038 3035 3037 3038 3040 3033 3029 3026 3023 3023 3022 3024 3027
3060 3062 3064 3065 3067 3067 3068 3068 3069 3070 3071 3071 3072 3071 3070 3068 3067 3066 3066 3065 3064 3063 3062 3061 3058 3053 3051 3050 3047 3043 3040 3036 3037 3041 3036 3041 3047 3040 3033 3032 3030 3029 3031 3032 3032
3063 3066 3067 3067 3069 3069 3071 3072 3072 3073 3073 3073 3072 3071 3071 3068 3069 3067 3067 3066 3065 3063 3063 3062 3058 3053 3050 3053 3049 3044 3041 3038 3036 3039 3038 3039 3046 3041 3039 3040 3039 3039 3039 3040 3041
3069 3069 3070 3070 3071 3071 3072 3074 3074 3074 3074 3074 3073 3072 3072 3070 3069 3068 3068 3067 3066 3064 3062 3061 3060 3058 3059 3057 3055 3049 3044 3038 3036 3037 3039 3040 3042 3043 3045 3045 3044 3043 3043 3043 3044
3071 3071 3071 3073 3073 3073 3074 3074 3075 3076 3076 3075 3074 3073 3072 3071 3070 3069 3068 3067 3067 3064 3063 3063 3062 3059 3057 3056 3055 3053 3048 3045 3042 3041 3041 3042 3043 3044 3046 3046 3046 3046 3045 3045 3044
3073 3072 3073 3073 3074 3074 3075 3075 3076 3076 3076 3076 3075 3074 3072 3072 3071 3070 3069 3068 3067 3066 3064 3063 3062 3061 3058 3056 3054 3053 3052 3049 3047 3045 3045 3045 3045 3046 3046 3046 3047 3047 3047 3046 3045
3080 3076 3073 3074 3075 3077 3076 3077 3077 3077 3076 3075 3075 3074 3073 3073 3072 3071 3070 3069 3067 3067 3065 3063 3062 3060 3058 3056 3054 3053 3051 3050 3048 3047 3047 3047 3047 3047 3047 3047 3047 3047 3046 3045 3044